User: anonymous   Login
Location: Newark
(54.0500°N, 12.8333°E)
Time: 15:07:03
(UTC+00:00)
Language:

Courier 1B - Orbit

View from above orbital plane
View from above orbital plane
View from above satellite
View from above satellite

Ground track
Ground track

The orbit data is extracted from the following two-line orbital elements,

1    58U 60013A   20026.16774206  .00000092  00000-0  10135-4 0  9991
2    58  28.3286 101.5531 0165049 323.0164  35.9102 13.46320616919825
Epoch (UTC): 26 January 2020 04:01:32
Eccentricity: 0.0165049
inclination: 28.3286°
perigee height: 962 km
apogee height: 1209 km
right ascension of ascending node: 101.5531°
argument of perigee: 323.0164°
revolutions per day: 13.46320616
mean anomaly at epoch: 35.9102°
orbit number at epoch: 91982

The dashed part of the orbit path shows where the satellite is in the earth's shadow,  

DLR